[[{"header":{"parameterUnit":"m.s-1","parameterCategory":1,"la1":30.2991,"la2":30.254,"lo1":-89.0895,"lo2":-89.0444,"dy":0.0017,"dx":0.0017,"nx":28,"ny":28,"refTime":"2023-10-06T09:00:00:Z","depth":0,"parameterNumber":2,"parameterNumberName":"U-component_of_WINDS"},"data":[0,0,0,0,0,0,0,0,0,0,0,0,0,0,0,0,0,0,0,0,0,0,0,0,0,0,0,0,0,0,0,0,0,0,0,0,0,0,0,0,0,0,0,0,0,0,0,0,0,0,0,0,0,0,0,0,0,0,-0.3984,-0.3984,0,-0.3989,-0.3989,-0.399,-0.3979,-0.3979,-0.3979,-0.3978,-0.3985,-0.3985,-0.3985,0,0,0,0,0,0,0,0,0,0,0,0,0,-0.3963,-0.3964,-0.3984,-0.3984,-0.3984,-0.3989,-0.3989,-0.399,-0.3979,-0.3979,-0.3978,-0.3978,-0.3984,-0.3985,-0.3986,0,0,0,0,0,0,0,0,0,0,0,0,0,-0.3971,-0.3964,-0.3984,-0.3979,-0.3979,-0.3989,-0.399,-0.399,-0.3979,-0.3979,-0.3978,-0.3978,-0.3984,-0.3985,-0.3986,-0.4001,0,0,-0.3988,-0.3988,0,0,0,0,0,0,0,0,-0.3971,-0.3972,-0.398,-0.398,-0.3979,-0.3983,-0.3985,-0.3993,-0.398,-0.3979,-0.3978,-0.3978,-0.3984,-0.3985,-0.3987,-0.4001,-0.4001,-0.3988,-0.3988,-0.3989,-0.3989,0,0,0,0,0,0,0,-0.397,-0.3971,-0.3986,-0.398,-0.398,-0.3977,-0.3977,-0.3986,-0.3985,-0.3979,-0.3979,-0.3979,-0.3984,-0.3987,-0.3987,-0.4001,-0.3988,-0.3989,-0.3989,-0.3989,-0.4027,-0.4027,0,0,0,0,0,0,-0.397,-0.3971,-0.3986,-0.3986,-0.3973,-0.3978,-0.3978,-0.3982,-0.3985,-0.3984,-0.398,-0.3979,-0.3986,-0.3987,-0.3988,-0.4005,-0.3989,-0.3989,-0.399,-0.4026,-0.4027,-0.4027,0,0,0,0,0,0,-0.397,-0.3971,-0.3985,-0.3978,-0.398,-0.3979,-0.3983,-0.3983,-0.3985,-0.3985,-0.3985,-0.3983,-0.3985,-0.3987,-0.3997,-0.4005,-0.399,-0.399,-0.4025,-0.4026,-0.4027,-0.404,0,0,0,0,0,0,-0.3969,-0.3971,-0.3977,-0.3979,-0.398,-0.3995,-0.3984,-0.3983,-0.3987,-0.3985,-0.3988,-0.3987,-0.3985,-0.3996,-0.3998,-0.4006,-0.3991,-0.4025,-0.4026,-0.4027,-0.4039,-0.4041,-0.4043,0,0,0,0,0,-0.3968,-0.3981,-0.3978,-0.3979,-0.3988,-0.3996,-0.3997,-0.3994,-0.3987,-0.3993,-0.3993,-0.3987,-0.4004,-0.3997,-0.3999,-0.4008,-0.4024,-0.4025,-0.4027,-0.4038,-0.4041,-0.4043,0,0,0,0,0,0,-0.3981,-0.3981,-0.3977,-0.3991,-0.3993,-0.3994,-0.4001,-0.3997,-0.4001,-0.4,-0.3996,-0.3997,-0.4008,-0.4009,-0.4002,-0.4022,-0.4013,-0.4015,-0.4021,-0.4024,-0.4026,-0.4025,-0.3992,0,0,0,0,0,-0.3985,-0.3992,-0.3991,-0.4003,-0.4005,-0.4003,-0.4006,-0.4003,-0.4006,-0.4007,-0.4007,-0.401,-0.4016,-0.402,-0.4025,-0.4039,-0.4039,-0.4045,-0.4047,-0.4049,-0.4051,-0.4058,-0.4061,-0.4031,-0.4031,-0.4031,0,0,-0.3994,-0.3995,-0.4,-0.4006,-0.4007,-0.4014,-0.4004,-0.4011,-0.4016,-0.4008,-0.4018,-0.4018,-0.4021,-0.4033,-0.4039,-0.4034,-0.4059,-0.4051,-0.4052,-0.4053,-0.4059,-0.4062,-0.4065,-0.4032,-0.4032,-0.4032,0,0,-0.4014,-0.4016,-0.4025,-0.4027,-0.4029,-0.4028,-0.403,-0.4031,-0.4031,-0.4041,-0.4035,-0.404,-0.405,-0.4052,-0.4055,-0.4074,-0.4069,-0.4076,-0.4087,-0.4094,-0.4096,-0.4098,-0.4105,-0.4108,-0.4077,-0.4077,-0.4077,0,-0.4025,-0.4035,-0.4031,-0.4039,-0.4041,-0.4034,-0.4043,-0.4045,-0.4049,-0.4051,-0.4046,-0.4058,-0.4059,-0.4072,-0.4076,-0.4079,-0.4081,-0.4076,-0.4096,-0.4098,-0.41,-0.4107,-0.4109,-0.4078,-0.4078,-0.4078,-0.4078,0,-0.4048,-0.4055,-0.4063,-0.4066,-0.407,-0.4079,-0.4076,-0.408,-0.4076,-0.4075,-0.4085,-0.4086,-0.4091,-0.4094,-0.4091,-0.4105,-0.4103,-0.4097,-0.4088,-0.4104,-0.411,-0.4112,-0.4079,-0.4079,-0.4079,-0.4078,0,0,-0.4077,-0.4078,-0.4081,-0.4082,-0.4083,-0.4089,-0.4097,-0.4101,-0.4105,-0.4108,-0.4114,-0.4122,-0.4117,-0.4119,-0.4116,-0.4122,-0.4137,-0.4116,-0.4116,-0.412,-0.4153,-0.4158,-0.4161,-0.4134,-0.4134,-0.4135,-0.4153,0,-0.4097,-0.4111,-0.4107,-0.4121,-0.4127,-0.4119,-0.4126,-0.4128,-0.4127,-0.4131,-0.413,-0.4136,-0.4128,-0.413,-0.4135,-0.4134,-0.4144,-0.4133,-0.414,-0.414,-0.414,-0.4164,-0.4169,-0.4186,-0.4155,-0.4156,-0.4156,0,-0.4122,-0.4126,-0.414,-0.414,-0.4142,-0.4148,-0.4152,-0.4157,-0.4158,-0.4157,-0.4159,-0.4155,-0.4162,-0.4153,-0.4163,-0.4156,-0.4158,-0.4158,-0.4159,-0.416,-0.415,-0.4166,-0.4192,-0.4194,-0.416,-0.416,-0.4159,0,-0.4142,-0.415,-0.4159,-0.4161,-0.4161,-0.4165,-0.4165,-0.4166,-0.4169,-0.4172,-0.4174,-0.4178,-0.418,-0.4183,-0.418,-0.4173,-0.419,-0.4181,-0.419,-0.419,-0.4194,-0.4194,-0.4221,-0.4195,-0.4195,-0.4195,-0.4195,0,-0.4165,-0.4174,-0.4168,-0.4174,-0.4184,-0.4179,-0.4188,-0.4188,-0.4188,-0.4194,-0.4187,-0.4193,-0.4188,-0.4192,-0.419,-0.4198,-0.42,-0.4199,-0.4198,-0.4199,-0.42,-0.4201,-0.42,-0.4196,-0.4196,-0.4196,-0.4196,0,-0.4189,-0.4185,-0.4195,-0.4194,-0.4194,-0.4201,-0.42,-0.4205,-0.4203,-0.421,-0.4211,-0.4208,-0.4213,-0.421,-0.4216,-0.4214,-0.4225,-0.4223,-0.4225,-0.4224,-0.4233,-0.4232,-0.4263,-0.4266,-0.4238,-0.4238,-0.4239,0,-0.4203,-0.421,-0.4209,-0.4212,-0.4213,-0.4218,-0.4221,-0.4215,-0.4218,-0.422,-0.4225,-0.4229,-0.4233,-0.4241,-0.424,-0.4244,-0.4241,-0.4252,-0.4242,-0.4243,-0.4241,-0.4241,-0.4242,-0.4254,-0.4254,-0.4254,-0.4255,0,-0.423,-0.4228,-0.4232,-0.4235,-0.4238,-0.424,-0.4242,-0.4245,-0.424,-0.4243,-0.4248,-0.4251,-0.4256,-0.426,-0.4263,-0.4263,-0.4258,-0.4257,-0.426,-0.4262,-0.4262,-0.4262,-0.423,-0.4257,-0.4257,-0.4257,-0.4256,-0.4256,-0.425,-0.4255,-0.4255,-0.426,-0.426,-0.4262,-0.4267,-0.4265,-0.4269,-0.4272,-0.4269,-0.4275,-0.4275,-0.4279,-0.428,-0.4284,-0.428,-0.4283,-0.4284,-0.4285,-0.4286,-0.4261,-0.4285,-0.4285,-0.4284,-0.4284,-0.4284,0,-0.4276,-0.4276,-0.428,-0.4282,-0.4285,-0.4279,-0.4281,-0.4284,-0.4289,-0.429,-0.4293,-0.4299,-0.4303,-0.4301,-0.4304,-0.4308,-0.4306,-0.4309,-0.4309,-0.4309,-0.429,-0.4288,-0.4311,-0.4311,-0.4311,-0.4311,-0.4311,-0.4311,-0.4291,-0.4299,-0.4297,-0.4305,-0.4305,-0.431,-0.4311,-0.4313,-0.4313,-0.4319,-0.4323,-0.4321,-0.4321,-0.4324,-0.4328,-0.4327,-0.4329,-0.4333,-0.4332,-0.4313,-0.4311,-0.4308,-0.4306,-0.4333,-0.4333,-0.4351,-0.4351,-0.4351]},{"header":{"parameterUnit":"m.s-1","parameterCategory":1,"la1":30.2991,"la2":30.254,"lo1":-89.0895,"lo2":-89.0444,"dy":0.0017,"dx":0.0017,"nx":28,"ny":28,"refTime":"2023-10-06T09:00:00:Z","depth":0,"parameterNumber":3,"parameterNumberName":"V-component_of_WINDS"},"data":[0,0,0,0,0,0,0,0,0,0,0,0,0,0,0,0,0,0,0,0,0,0,0,0,0,0,0,0,0,0,0,0,0,0,0,0,0,0,0,0,0,0,0,0,0,0,0,0,0,0,0,0,0,0,0,0,0,0,-6.2703,-6.2704,0,-6.2766,-6.2767,-6.2768,-6.2733,-6.2731,-6.273,-6.2728,-6.2788,-6.2791,-6.2794,0,0,0,0,0,0,0,0,0,0,0,0,0,-6.2548,-6.2551,-6.2703,-6.2704,-6.2704,-6.2766,-6.2767,-6.2768,-6.2733,-6.2731,-6.2729,-6.2727,-6.2786,-6.279,-6.2794,0,0,0,0,0,0,0,0,0,0,0,0,0,-6.2614,-6.2552,-6.2703,-6.2695,-6.2695,-6.2766,-6.2767,-6.2768,-6.2734,-6.2731,-6.2729,-6.2726,-6.2785,-6.279,-6.2795,-6.2876,0,0,-6.2809,-6.2811,0,0,0,0,0,0,0,0,-6.261,-6.2619,-6.2695,-6.2695,-6.2696,-6.2739,-6.2734,-6.2804,-6.2734,-6.2719,-6.2728,-6.2725,-6.2773,-6.2779,-6.2796,-6.2878,-6.2881,-6.281,-6.2812,-6.2815,-6.2816,0,0,0,0,0,0,0,-6.2605,-6.2616,-6.2728,-6.2696,-6.2697,-6.2687,-6.2693,-6.2747,-6.2759,-6.272,-6.2718,-6.2726,-6.2773,-6.2792,-6.2797,-6.2882,-6.2809,-6.2814,-6.2817,-6.2819,-6.3036,-6.3039,0,0,0,0,0,0,-6.2602,-6.2613,-6.2726,-6.273,-6.2646,-6.2692,-6.2699,-6.2728,-6.2759,-6.2761,-6.2728,-6.2724,-6.2785,-6.2792,-6.2799,-6.2898,-6.2815,-6.2819,-6.2822,-6.3033,-6.3036,-6.304,0,0,0,0,0,0,-6.2599,-6.2612,-6.2723,-6.2671,-6.2684,-6.2697,-6.273,-6.273,-6.2749,-6.2765,-6.2766,-6.2745,-6.2783,-6.2793,-6.2858,-6.2899,-6.2821,-6.2825,-6.3029,-6.3034,-6.3038,-6.3095,0,0,0,0,0,0,-6.2594,-6.2611,-6.2643,-6.2672,-6.2687,-6.2782,-6.2732,-6.2733,-6.2758,-6.2754,-6.2782,-6.2784,-6.2782,-6.2851,-6.2863,-6.2905,-6.2829,-6.3026,-6.3031,-6.3037,-6.3089,-6.3101,-6.311,0,0,0,0,0,-6.2589,-6.2655,-6.2645,-6.2659,-6.2727,-6.2784,-6.2793,-6.2791,-6.2762,-6.2793,-6.2804,-6.2783,-6.2893,-6.2858,-6.2871,-6.2915,-6.3023,-6.303,-6.3036,-6.3084,-6.3098,-6.311,0,0,0,0,0,0,-6.2628,-6.2658,-6.2648,-6.2725,-6.2753,-6.2778,-6.2818,-6.2805,-6.284,-6.2834,-6.2828,-6.2835,-6.2903,-6.2915,-6.2875,-6.2996,-6.2953,-6.2963,-6.2986,-6.2999,-6.3009,-6.3005,-6.2833,0,0,0,0,0,-6.2646,-6.2691,-6.2715,-6.278,-6.2795,-6.2805,-6.2829,-6.2826,-6.2853,-6.2864,-6.2879,-6.2906,-6.2946,-6.2973,-6.3011,-6.3091,-6.3097,-6.3127,-6.3138,-6.3146,-6.3155,-6.32,-6.3214,-6.3061,-6.3061,-6.3061,0,0,-6.2682,-6.2705,-6.2733,-6.2789,-6.281,-6.2857,-6.2814,-6.2865,-6.2899,-6.2871,-6.2935,-6.2947,-6.2976,-6.305,-6.3082,-6.3062,-6.3199,-6.3155,-6.3161,-6.3165,-6.3208,-6.3222,-6.3235,-6.3065,-6.3065,-6.3064,0,0,-6.2774,-6.2795,-6.2853,-6.2876,-6.291,-6.2916,-6.293,-6.2959,-6.2967,-6.3031,-6.3012,-6.3051,-6.3121,-6.3144,-6.3164,-6.3267,-6.3249,-6.3279,-6.3334,-6.3377,-6.339,-6.34,-6.3438,-6.3452,-6.3287,-6.3287,-6.3287,0,-6.2815,-6.2886,-6.2884,-6.2938,-6.2963,-6.2943,-6.3002,-6.3023,-6.3066,-6.3084,-6.306,-6.315,-6.3167,-6.3247,-6.3272,-6.3289,-6.3305,-6.3276,-6.3388,-6.3399,-6.3409,-6.3445,-6.3459,-6.3291,-6.329,-6.329,-6.329,0,-6.2935,-6.2985,-6.3027,-6.3074,-6.3103,-6.3159,-6.3166,-6.3196,-6.319,-6.3199,-6.3265,-6.3286,-6.3329,-6.3347,-6.3341,-6.3427,-6.3413,-6.3389,-6.3346,-6.3427,-6.3461,-6.3475,-6.3296,-6.3294,-6.3293,-6.3293,0,0,-6.3051,-6.3098,-6.3114,-6.3136,-6.3172,-6.321,-6.3265,-6.3309,-6.3336,-6.3367,-6.3413,-6.3474,-6.3453,-6.3476,-6.3472,-6.3511,-6.3593,-6.3482,-6.3483,-6.3503,-6.369,-6.3709,-6.3725,-6.3581,-6.3584,-6.3586,-6.3688,0,-6.3146,-6.3245,-6.3246,-6.3336,-6.3383,-6.3365,-6.3413,-6.344,-6.345,-6.349,-6.35,-6.3544,-6.3512,-6.3526,-6.3563,-6.3575,-6.363,-6.3567,-6.3624,-6.3626,-6.3618,-6.3742,-6.3762,-6.3857,-6.3701,-6.3703,-6.3705,0,-6.3269,-6.3308,-6.3404,-6.3437,-6.3456,-6.3499,-6.3542,-6.358,-6.3611,-6.3615,-6.3643,-6.3634,-6.3689,-6.3645,-6.3721,-6.3679,-6.3702,-6.3711,-6.3715,-6.372,-6.3671,-6.3753,-6.3887,-6.3902,-6.3726,-6.3724,-6.3723,0,-6.3347,-6.3422,-6.349,-6.3509,-6.3548,-6.3579,-6.3596,-6.3625,-6.3653,-6.3689,-6.3707,-6.3748,-6.3771,-6.3803,-6.3805,-6.3772,-6.3883,-6.3838,-6.3888,-6.3888,-6.3912,-6.3911,-6.4054,-6.3925,-6.3925,-6.3925,-6.3925,0,-6.3453,-6.3513,-6.3526,-6.3567,-6.3634,-6.3635,-6.37,-6.3714,-6.374,-6.3784,-6.377,-6.3811,-6.3811,-6.3852,-6.3854,-6.3918,-6.3928,-6.3933,-6.3933,-6.3935,-6.3935,-6.3951,-6.3944,-6.3929,-6.3928,-6.3927,-6.3926,0,-6.3551,-6.3562,-6.3635,-6.3667,-6.3677,-6.3724,-6.3751,-6.3791,-6.38,-6.3856,-6.3869,-6.3883,-6.3931,-6.3937,-6.3992,-6.3993,-6.4071,-6.4063,-6.4062,-6.4061,-6.4111,-6.4107,-6.427,-6.4292,-6.4148,-6.415,-6.4151,0,-6.3618,-6.3664,-6.3703,-6.3733,-6.3753,-6.38,-6.3829,-6.3832,-6.3862,-6.3902,-6.3937,-6.3985,-6.4023,-6.4101,-6.4116,-6.4158,-6.4152,-6.4207,-6.4158,-6.416,-6.4155,-6.4153,-6.4158,-6.4216,-6.4218,-6.4219,-6.422,0,-6.3738,-6.3742,-6.3785,-6.3832,-6.3868,-6.3904,-6.3938,-6.3962,-6.3969,-6.4004,-6.4055,-6.4085,-6.4144,-6.4191,-6.4234,-6.425,-6.4237,-6.4235,-6.4249,-6.4252,-6.425,-6.4254,-6.4089,-6.4231,-6.423,-6.4229,-6.4229,-6.4228,-6.3823,-6.3864,-6.3899,-6.3949,-6.3975,-6.4008,-6.4048,-6.4063,-6.4107,-6.4156,-6.4155,-6.4211,-6.4242,-6.4298,-6.4318,-6.4361,-6.4343,-6.4363,-6.4368,-6.4374,-6.438,-6.4243,-6.4369,-6.4369,-6.4368,-6.4368,-6.4368,0,-6.3943,-6.3966,-6.4012,-6.4061,-6.41,-6.4086,-6.4124,-6.4157,-6.4208,-6.4239,-6.4278,-6.4337,-6.4384,-6.4403,-6.4449,-6.448,-6.4475,-6.4492,-6.449,-6.4494,-6.4392,-6.4377,-6.4495,-6.4495,-6.4495,-6.4495,-6.4495,-6.4495,-6.4011,-6.4081,-6.4089,-6.4172,-6.4193,-6.425,-6.4273,-6.4303,-6.4328,-6.4396,-6.4436,-6.4449,-6.4475,-6.4523,-6.4565,-6.457,-6.4588,-6.4608,-6.4609,-6.4514,-6.4501,-6.4489,-6.4474,-6.4611,-6.4612,-6.4708,-6.4709,-6.4709]}]]